Time,TemperatureF,DewpointF,PressureIn,WindDirection,WindDirectionDegrees,WindSpeedMPH,WindSpeedGustMPH,Humidity,HourlyPrecipIn,Conditions,Clouds,dailyrainin,SoftwareType,DateUTC
2013-01-13 00:00:00,38.1,40.3,30.14,NW,313,0.0,0.0,97,0.00,,,0.00,meteohub,2013-01-13 05:00:00,
2013-01-13 00:03:00,38.1,40.3,30.14,NW,313,0.0,0.0,97,0.00,,,0.00,meteohub,2013-01-13 05:03:00,
2013-01-13 00:08:00,38.1,40.3,30.14,NW,313,0.0,0.0,97,0.00,,,0.00,meteohub,2013-01-13 05:08:00,
2013-01-13 00:13:00,38.1,40.1,30.14,NW,313,0.0,0.0,97,0.00,,,0.00,meteohub,2013-01-13 05:13:00,
2013-01-13 00:18:00,38.1,40.1,30.14,NW,313,0.0,0.0,97,0.00,,,0.00,meteohub,2013-01-13 05:18:00,
2013-01-13 00:23:00,38.1,39.9,30.14,NW,313,0.0,0.0,97,0.00,,,0.00,meteohub,2013-01-13 05:23:00,
2013-01-13 00:28:00,37.9,39.9,30.14,NW,313,0.0,0.0,97,0.00,,,0.00,meteohub,2013-01-13 05:28:00,
2013-01-13 00:33:00,37.9,39.9,30.14,NW,313,0.0,0.0,97,0.00,,,0.00,meteohub,2013-01-13 05:33:00,
2013-01-13 00:38:00,37.8,39.9,30.14,NW,313,0.0,0.0,97,0.00,,,0.00,meteohub,2013-01-13 05:38:00,
2013-01-13 00:43:00,37.9,39.9,30.14,NW,313,0.0,0.0,97,0.00,,,0.00,meteohub,2013-01-13 05:43:00,
2013-01-13 00:48:00,37.9,39.7,30.14,NW,313,0.0,0.0,97,0.00,,,0.00,meteohub,2013-01-13 05:48:00,
2013-01-13 00:53:00,38.3,39.7,30.13,NW,313,0.0,0.0,97,0.00,,,0.00,meteohub,2013-01-13 05:53:00,
2013-01-13 00:58:00,38.3,39.7,30.12,NW,313,0.0,0.0,97,0.00,,,0.00,meteohub,2013-01-13 05:58:00,
2013-01-13 01:03:00,38.3,39.7,30.13,NW,313,0.0,0.0,97,0.00,,,0.00,meteohub,2013-01-13 06:03:00,
2013-01-13 01:08:00,38.3,39.7,30.13,NW,313,0.0,0.0,97,0.00,,,0.00,meteohub,2013-01-13 06:08:00,
2013-01-13 01:13:00,38.7,39.7,30.12,NW,313,0.0,0.0,97,0.00,,,0.00,meteohub,2013-01-13 06:13:00,
2013-01-13 01:18:00,38.8,39.7,30.12,NW,313,0.0,0.0,98,0.00,,,0.00,meteohub,2013-01-13 06:18:00,
2013-01-13 01:23:00,39.0,39.6,30.13,NW,313,0.0,0.0,97,0.00,,,0.00,meteohub,2013-01-13 06:23:00,
2013-01-13 01:28:00,39.4,39.6,30.13,NW,313,0.0,0.0,98,0.00,,,0.00,meteohub,2013-01-13 06:28:00,
2013-01-13 01:33:00,39.7,39.4,30.13,NW,313,0.0,0.0,98,0.00,,,0.00,meteohub,2013-01-13 06:33:00,
2013-01-13 01:38:00,39.9,39.4,30.14,NW,313,0.0,0.0,98,0.00,,,0.00,meteohub,2013-01-13 06:38:00,
2013-01-13 01:43:00,39.9,39.4,30.14,NW,313,0.0,1.0,98,0.00,,,0.00,meteohub,2013-01-13 06:43:00,
2013-01-13 01:48:00,40.1,39.2,30.14,NW,313,0.0,1.0,98,0.00,,,0.00,meteohub,2013-01-13 06:48:00,
2013-01-13 01:53:00,39.9,39.2,30.14,NW,313,0.0,0.0,98,0.00,,,0.00,meteohub,2013-01-13 06:53:00,
2013-01-13 01:59:00,39.9,39.2,30.14,NW,313,0.0,0.0,98,0.00,,,0.00,meteohub,2013-01-13 06:59:00,
2013-01-13 02:04:00,39.7,39.0,30.15,NW,313,0.0,0.0,98,0.00,,,0.00,meteohub,2013-01-13 07:04:00,
2013-01-13 02:09:00,39.4,39.0,30.15,NW,313,0.0,0.0,97,0.00,,,0.00,meteohub,2013-01-13 07:09:00,
2013-01-13 02:14:00,39.0,39.2,30.14,NW,313,0.0,1.0,97,0.00,,,0.00,meteohub,2013-01-13 07:14:00,
2013-01-13 02:19:00,39.0,39.0,30.14,NW,313,0.0,1.0,97,0.00,,,0.00,meteohub,2013-01-13 07:19:00,
2013-01-13 02:24:00,39.0,39.0,30.14,NW,313,0.0,1.0,97,0.00,,,0.00,meteohub,2013-01-13 07:24:00,
2013-01-13 02:29:00,39.0,39.0,30.14,NW,313,0.0,0.0,97,0.00,,,0.00,meteohub,2013-01-13 07:29:00,
2013-01-13 02:34:00,39.0,39.0,30.14,NW,313,0.0,0.0,98,0.00,,,0.00,meteohub,2013-01-13 07:34:00,
2013-01-13 02:39:00,38.8,38.8,30.14,NW,313,0.0,0.0,98,0.00,,,0.00,meteohub,2013-01-13 07:39:00,
2013-01-13 02:44:00,38.8,38.8,30.13,NW,313,0.0,0.0,98,0.00,,,0.00,meteohub,2013-01-13 07:44:00,
2013-01-13 02:49:00,38.8,38.8,30.14,NW,313,0.0,0.0,98,0.00,,,0.00,meteohub,2013-01-13 07:49:00,
2013-01-13 02:54:00,38.7,38.8,30.14,NW,313,0.0,0.0,97,0.00,,,0.00,meteohub,2013-01-13 07:54:00,
2013-01-13 02:59:00,38.7,38.8,30.14,NW,313,0.0,0.0,97,0.00,,,0.00,meteohub,2013-01-13 07:59:00,
2013-01-13 03:04:00,38.7,38.8,30.14,NW,313,0.0,0.0,97,0.00,,,0.00,meteohub,2013-01-13 08:04:00,
2013-01-13 03:09:00,38.5,38.8,30.14,NW,313,0.0,0.0,97,0.00,,,0.00,meteohub,2013-01-13 08:09:00,
2013-01-13 03:14:00,38.5,38.8,30.14,NW,313,0.0,0.0,98,0.00,,,0.00,meteohub,2013-01-13 08:14:00,
2013-01-13 03:19:00,38.5,38.8,30.14,NW,313,0.0,0.0,97,0.00,,,0.00,meteohub,2013-01-13 08:19:00,
2013-01-13 03:24:00,38.7,38.8,30.13,NW,313,0.0,0.0,97,0.00,,,0.00,meteohub,2013-01-13 08:24:00,
2013-01-13 03:29:00,38.7,38.7,30.13,NW,313,0.0,0.0,97,0.00,,,0.00,meteohub,2013-01-13 08:29:00,
2013-01-13 03:34:00,38.7,38.7,30.13,NW,313,0.0,0.0,97,0.00,,,0.00,meteohub,2013-01-13 08:34:00,
2013-01-13 03:39:00,38.5,38.7,30.13,NW,313,0.0,0.0,97,0.00,,,0.00,meteohub,2013-01-13 08:39:00,
2013-01-13 03:44:00,38.5,38.7,30.12,NW,313,0.0,2.0,97,0.00,,,0.00,meteohub,2013-01-13 08:44:00,
2013-01-13 03:49:00,38.1,38.5,30.12,NW,313,0.0,2.0,98,0.00,,,0.00,meteohub,2013-01-13 08:49:00,
2013-01-13 03:54:00,38.1,38.5,30.12,NW,313,0.0,2.0,98,0.00,,,0.00,meteohub,2013-01-13 08:54:00,
2013-01-13 03:59:00,38.1,38.5,30.12,NW,313,0.0,0.0,98,0.00,,,0.00,meteohub,2013-01-13 08:59:00,
2013-01-13 04:04:00,37.9,38.5,30.10,NW,313,0.0,0.0,97,0.00,,,0.00,meteohub,2013-01-13 09:04:00,
2013-01-13 04:09:00,37.8,38.5,30.10,NW,313,2.0,0.0,97,0.00,,,0.00,meteohub,2013-01-13 09:09:00,
2013-01-13 04:14:00,37.8,38.5,30.10,NW,313,0.0,0.0,97,0.00,,,0.00,meteohub,2013-01-13 09:14:00,
2013-01-13 04:20:00,37.4,38.5,30.10,NW,313,0.0,4.0,97,0.00,,,0.00,meteohub,2013-01-13 09:20:00,
2013-01-13 04:25:00,37.4,38.5,30.10,NW,313,2.0,4.0,97,0.00,,,0.00,meteohub,2013-01-13 09:25:00,
2013-01-13 04:30:00,37.4,38.3,30.11,NW,313,0.0,4.0,97,0.00,,,0.00,meteohub,2013-01-13 09:30:00,
2013-01-13 04:35:00,37.2,38.3,30.12,NW,313,0.0,4.0,97,0.00,,,0.00,meteohub,2013-01-13 09:35:00,
2013-01-13 04:40:00,37.8,38.3,30.11,NW,313,0.0,4.0,98,0.00,,,0.00,meteohub,2013-01-13 09:40:00,
2013-01-13 04:45:00,37.8,38.1,30.11,NW,313,0.0,4.0,97,0.00,,,0.00,meteohub,2013-01-13 09:45:00,
2013-01-13 04:50:00,37.8,38.1,30.10,NW,313,0.0,2.0,97,0.00,,,0.00,meteohub,2013-01-13 09:50:00,
2013-01-13 04:55:00,37.4,38.1,30.10,NW,313,0.0,2.0,97,0.00,,,0.00,meteohub,2013-01-13 09:55:00,
2013-01-13 05:00:00,37.2,38.1,30.09,NW,313,0.0,1.0,97,0.00,,,0.00,meteohub,2013-01-13 10:00:00,
2013-01-13 05:05:00,37.2,38.1,30.11,NW,313,0.0,1.0,97,0.00,,,0.00,meteohub,2013-01-13 10:05:00,
2013-01-13 05:10:00,37.2,38.1,30.10,NW,313,0.0,1.0,97,0.00,,,0.00,meteohub,2013-01-13 10:10:00,
2013-01-13 05:15:00,37.2,38.1,30.09,NW,313,0.0,0.0,97,0.00,,,0.00,meteohub,2013-01-13 10:15:00,
2013-01-13 05:20:00,37.2,38.1,30.09,NW,313,0.0,1.0,97,0.00,,,0.00,meteohub,2013-01-13 10:20:00,
2013-01-13 05:25:00,37.0,38.1,30.09,NW,313,0.0,1.0,97,0.00,,,0.00,meteohub,2013-01-13 10:25:00,
2013-01-13 05:30:00,37.0,37.9,30.10,NW,313,0.0,1.0,98,0.00,,,0.00,meteohub,2013-01-13 10:30:00,
2013-01-13 05:35:00,37.2,37.9,30.12,NW,313,0.0,0.0,97,0.00,,,0.00,meteohub,2013-01-13 10:35:00,
2013-01-13 05:40:00,37.4,37.9,30.12,NW,313,1.0,1.0,97,0.00,,,0.00,meteohub,2013-01-13 10:40:00,
2013-01-13 05:45:00,37.0,37.8,30.12,NW,313,0.0,1.0,98,0.00,,,0.00,meteohub,2013-01-13 10:45:00,
2013-01-13 05:50:00,37.0,37.8,30.12,NW,313,0.0,1.0,98,0.00,,,0.00,meteohub,2013-01-13 10:50:00,
2013-01-13 05:55:00,37.0,37.8,30.12,NW,313,0.0,1.0,98,0.00,,,0.00,meteohub,2013-01-13 10:55:00,
2013-01-13 06:00:00,37.2,37.8,30.12,NW,313,0.0,0.0,97,0.00,,,0.00,meteohub,2013-01-13 11:00:00,
2013-01-13 06:05:00,37.2,37.8,30.11,NW,313,0.0,0.0,97,0.00,,,0.00,meteohub,2013-01-13 11:05:00,
2013-01-13 06:10:00,37.2,37.8,30.11,NW,313,0.0,0.0,97,0.00,,,0.00,meteohub,2013-01-13 11:10:00,
2013-01-13 06:15:00,37.4,37.8,30.12,NW,313,0.0,0.0,97,0.00,,,0.00,meteohub,2013-01-13 11:15:00,
2013-01-13 06:20:00,37.4,37.8,30.12,NW,313,0.0,0.0,97,0.00,,,0.00,meteohub,2013-01-13 11:20:00,
2013-01-13 06:25:00,37.4,37.8,30.12,NW,313,0.0,0.0,97,0.00,,,0.00,meteohub,2013-01-13 11:25:00,
2013-01-13 06:30:00,37.6,37.8,30.11,NW,313,0.0,0.0,97,0.00,,,0.00,meteohub,2013-01-13 11:30:00,
2013-01-13 06:35:00,37.4,37.8,30.11,NW,313,0.0,0.0,97,0.00,,,0.00,meteohub,2013-01-13 11:35:00,
2013-01-13 06:40:00,37.4,37.8,30.12,NW,313,0.0,0.0,97,0.00,,,0.00,meteohub,2013-01-13 11:40:00,
2013-01-13 06:45:00,37.6,37.8,30.12,NW,313,0.0,0.0,98,0.00,,,0.00,meteohub,2013-01-13 11:45:00,
2013-01-13 06:50:00,37.2,37.8,30.12,NW,313,0.0,0.0,97,0.00,,,0.00,meteohub,2013-01-13 11:50:00,
2013-01-13 06:55:00,37.0,38.1,30.12,NW,313,0.0,0.0,98,0.00,,,0.00,meteohub,2013-01-13 11:55:00,
2013-01-13 07:00:00,37.0,39.4,30.12,NW,313,0.0,0.0,98,0.00,,,0.00,meteohub,2013-01-13 12:00:00,
2013-01-13 07:05:00,37.2,38.8,30.12,NW,313,0.0,0.0,98,0.00,,,0.00,meteohub,2013-01-13 12:05:00,
2013-01-13 07:10:00,37.2,38.8,30.12,NW,313,0.0,0.0,98,0.00,,,0.00,meteohub,2013-01-13 12:10:00,
2013-01-13 07:15:00,37.6,38.8,30.13,NW,313,0.0,1.0,98,0.00,,,0.00,meteohub,2013-01-13 12:15:00,
2013-01-13 07:20:00,37.6,39.0,30.13,NW,313,0.0,1.0,98,0.00,,,0.00,meteohub,2013-01-13 12:20:00,
2013-01-13 07:25:00,37.6,39.0,30.13,NW,313,0.0,1.0,97,0.00,,,0.00,meteohub,2013-01-13 12:25:00,
2013-01-13 07:30:00,37.0,39.0,30.13,NW,313,0.0,2.0,98,0.00,,,0.00,meteohub,2013-01-13 12:30:00,
2013-01-13 07:35:00,37.0,39.2,30.13,NW,313,0.0,2.0,98,0.00,,,0.00,meteohub,2013-01-13 12:35:00,
2013-01-13 07:40:00,37.2,39.4,30.14,NW,313,0.0,2.0,98,0.00,,,0.00,meteohub,2013-01-13 12:40:00,
2013-01-13 07:45:00,37.4,39.6,30.15,NW,313,0.0,0.0,98,0.00,,,0.00,meteohub,2013-01-13 12:45:00,
2013-01-13 07:50:00,37.6,39.7,30.15,NW,313,0.0,0.0,98,0.00,,,0.00,meteohub,2013-01-13 12:50:00,
2013-01-13 07:55:00,37.6,39.7,30.14,NW,313,0.0,0.0,98,0.00,,,0.00,meteohub,2013-01-13 12:55:00,
2013-01-13 08:00:00,37.8,39.7,30.14,NW,313,0.0,0.0,98,0.00,,,0.00,meteohub,2013-01-13 13:00:00,
2013-01-13 08:05:00,37.6,39.7,30.13,NW,313,0.0,0.0,98,0.00,,,0.00,meteohub,2013-01-13 13:05:00,
2013-01-13 08:10:00,37.8,39.7,30.13,NW,313,0.0,0.0,98,0.00,,,0.00,meteohub,2013-01-13 13:10:00,
2013-01-13 08:15:00,38.1,39.9,30.13,NW,313,0.0,0.0,98,0.00,,,0.00,meteohub,2013-01-13 13:15:00,
2013-01-13 08:20:00,38.5,40.1,30.14,NW,313,0.0,0.0,98,0.00,,,0.00,meteohub,2013-01-13 13:20:00,
2013-01-13 08:25:00,38.7,40.1,30.14,NW,313,0.0,0.0,98,0.00,,,0.00,meteohub,2013-01-13 13:25:00,
2013-01-13 08:31:00,38.8,40.1,30.14,NW,313,0.0,0.0,98,0.00,,,0.00,meteohub,2013-01-13 13:31:00,
2013-01-13 08:35:00,38.8,40.1,30.14,NW,313,0.0,0.0,98,0.00,,,0.00,meteohub,2013-01-13 13:35:00,
2013-01-13 08:41:00,38.8,40.1,30.14,NW,313,0.0,0.0,98,0.00,,,0.00,meteohub,2013-01-13 13:41:00,
2013-01-13 08:46:00,39.0,40.1,30.14,NW,313,0.0,0.0,98,0.00,,,0.00,meteohub,2013-01-13 13:46:00,
2013-01-13 08:51:00,39.4,39.9,30.14,NW,313,0.0,1.0,98,0.00,,,0.00,meteohub,2013-01-13 13:51:00,
2013-01-13 08:56:00,39.6,39.9,30.14,NW,313,0.0,1.0,98,0.00,,,0.00,meteohub,2013-01-13 13:56:00,
2013-01-13 09:01:00,39.6,40.1,30.15,NW,313,0.0,1.0,98,0.00,,,0.00,meteohub,2013-01-13 14:01:00,
2013-01-13 09:06:00,39.7,40.3,30.15,NW,313,0.0,0.0,98,0.00,,,0.00,meteohub,2013-01-13 14:06:00,
2013-01-13 09:11:00,40.1,40.3,30.15,NW,313,0.0,0.0,98,0.00,,,0.00,meteohub,2013-01-13 14:11:00,
2013-01-13 09:16:00,40.5,40.3,30.14,NW,313,0.0,1.0,98,0.00,,,0.00,meteohub,2013-01-13 14:16:00,
2013-01-13 09:21:00,41.0,40.3,30.14,NW,323,0.0,1.0,98,0.00,,,0.00,meteohub,2013-01-13 14:21:00,
2013-01-13 09:26:00,41.5,40.3,30.14,NW,323,1.0,2.0,98,0.00,,,0.00,meteohub,2013-01-13 14:26:00,
2013-01-13 09:31:00,42.1,40.3,30.14,NW,322,0.0,2.0,98,0.00,,,0.00,meteohub,2013-01-13 14:31:00,
2013-01-13 09:36:00,42.4,40.3,30.14,NW,322,0.0,2.0,98,0.00,,,0.00,meteohub,2013-01-13 14:36:00,
2013-01-13 09:41:00,42.4,40.3,30.14,NW,322,0.0,2.0,98,0.00,,,0.00,meteohub,2013-01-13 14:41:00,
2013-01-13 09:46:00,42.6,40.3,30.14,NW,323,0.0,1.0,98,0.00,,,0.00,meteohub,2013-01-13 14:46:00,
2013-01-13 09:51:00,42.6,40.3,30.14,NW,322,0.0,0.0,98,0.00,,,0.00,meteohub,2013-01-13 14:51:00,
2013-01-13 09:56:00,42.6,40.6,30.15,NW,323,0.0,0.0,98,0.00,,,0.00,meteohub,2013-01-13 14:56:00,
2013-01-13 10:01:00,42.8,40.8,30.15,NW,323,0.0,0.0,98,0.00,,,0.00,meteohub,2013-01-13 15:01:00,
2013-01-13 10:06:00,42.8,40.8,30.15,NW,322,0.0,0.0,98,0.00,,,0.00,meteohub,2013-01-13 15:06:00,
2013-01-13 10:11:00,43.0,40.8,30.15,NW,323,0.0,0.0,98,0.00,,,0.00,meteohub,2013-01-13 15:11:00,
2013-01-13 10:16:00,43.0,40.8,30.15,NW,323,0.0,0.0,98,0.00,,,0.00,meteohub,2013-01-13 15:16:00,
2013-01-13 10:21:00,43.0,40.8,30.14,NW,323,0.0,0.0,98,0.00,,,0.00,meteohub,2013-01-13 15:21:00,
2013-01-13 10:26:00,43.2,40.8,30.14,NW,322,0.0,0.0,98,0.00,,,0.00,meteohub,2013-01-13 15:26:00,
2013-01-13 10:31:00,43.3,40.8,30.14,NW,323,0.0,0.0,98,0.00,,,0.00,meteohub,2013-01-13 15:31:00,
2013-01-13 10:36:00,43.3,40.8,30.14,NW,323,0.0,0.0,98,0.00,,,0.00,meteohub,2013-01-13 15:36:00,
2013-01-13 10:41:00,43.5,40.6,30.14,NW,323,0.0,1.0,98,0.00,,,0.00,meteohub,2013-01-13 15:41:00,
2013-01-13 10:46:00,43.9,40.6,30.14,NW,323,0.0,1.0,98,0.00,,,0.00,meteohub,2013-01-13 15:46:00,
2013-01-13 10:51:00,44.1,40.6,30.13,NW,322,0.0,0.0,98,0.00,,,0.00,meteohub,2013-01-13 15:51:00,
2013-01-13 10:56:00,44.1,40.8,30.13,NW,322,0.0,1.0,98,0.00,,,0.00,meteohub,2013-01-13 15:56:00,
2013-01-13 11:01:00,44.2,41.0,30.13,NW,323,0.0,1.0,98,0.00,,,0.00,meteohub,2013-01-13 16:01:00,
2013-01-13 11:06:00,44.2,41.0,30.13,NW,322,0.0,1.0,98,0.00,,,0.00,meteohub,2013-01-13 16:06:00,
2013-01-13 11:11:00,44.2,41.0,30.12,NW,323,0.0,1.0,98,0.00,,,0.00,meteohub,2013-01-13 16:11:00,
2013-01-13 11:16:00,44.2,41.0,30.12,NW,320,0.0,1.0,98,0.00,,,0.00,meteohub,2013-01-13 16:16:00,
2013-01-13 11:21:00,44.6,41.0,30.12,NW,320,0.0,2.0,98,0.00,,,0.00,meteohub,2013-01-13 16:21:00,
2013-01-13 11:26:00,44.8,40.8,30.12,NW,320,0.0,2.0,98,0.00,,,0.00,meteohub,2013-01-13 16:26:00,
2013-01-13 11:31:00,45.0,40.8,30.11,NW,319,0.0,2.0,98,0.00,,,0.00,meteohub,2013-01-13 16:31:00,
2013-01-13 11:36:00,45.0,40.8,30.11,NW,320,0.0,1.0,98,0.00,,,0.00,meteohub,2013-01-13 16:36:00,
2013-01-13 11:41:00,45.0,40.8,30.12,North,5,0.0,2.0,98,0.00,,,0.00,meteohub,2013-01-13 16:41:00,
2013-01-13 11:46:00,45.0,40.6,30.12,SSE,148,0.0,3.0,98,0.00,,,0.00,meteohub,2013-01-13 16:46:00,
2013-01-13 11:51:00,45.1,40.6,30.11,SSE,148,0.0,3.0,98,0.00,,,0.00,meteohub,2013-01-13 16:51:00,
2013-01-13 11:56:00,45.1,41.7,30.11,SSE,148,0.0,3.0,98,0.00,,,0.00,meteohub,2013-01-13 16:56:00,
2013-01-13 12:01:00,45.1,41.9,30.10,SSE,148,0.0,1.0,98,0.00,,,0.00,meteohub,2013-01-13 17:01:00,
2013-01-13 12:06:00,45.1,41.0,30.10,SSW,196,0.0,1.0,98,0.00,,,0.00,meteohub,2013-01-13 17:06:00,
2013-01-13 12:11:00,45.3,41.0,30.10,SSW,195,0.0,1.0,98,0.00,,,0.00,meteohub,2013-01-13 17:11:00,
2013-01-13 12:16:00,45.1,41.0,30.10,SSW,196,0.0,1.0,98,0.00,,,0.00,meteohub,2013-01-13 17:16:00,
2013-01-13 12:21:00,45.1,41.9,30.09,SSW,196,0.0,1.0,98,0.00,,,0.00,meteohub,2013-01-13 17:21:00,
2013-01-13 12:26:00,45.3,41.9,30.09,SSW,196,0.0,1.0,98,0.00,,,0.00,meteohub,2013-01-13 17:26:00,
2013-01-13 12:31:00,45.3,41.9,30.09,SSE,159,0.0,2.0,98,0.00,,,0.00,meteohub,2013-01-13 17:31:00,
2013-01-13 12:36:00,45.5,41.9,30.09,North,0,0.0,2.0,98,0.00,,,0.00,meteohub,2013-01-13 17:36:00,
2013-01-13 12:41:00,45.7,41.7,30.08,North,0,0.0,2.0,98,0.00,,,0.00,meteohub,2013-01-13 17:41:00,
2013-01-13 12:46:00,45.7,41.7,30.08,NNW,334,0.0,2.0,98,0.00,,,0.00,meteohub,2013-01-13 17:46:00,
2013-01-13 12:51:00,45.7,41.7,30.08,NNW,334,0.0,2.0,98,0.00,,,0.00,meteohub,2013-01-13 17:51:00,
2013-01-13 12:56:00,45.9,41.7,30.07,North,9,0.0,2.0,98,0.00,,,0.00,meteohub,2013-01-13 17:56:00,
2013-01-13 13:01:00,45.9,41.9,30.08,SSE,163,0.0,2.0,98,0.00,,,0.00,meteohub,2013-01-13 18:01:00,
2013-01-13 13:06:00,46.0,41.9,30.08,NNE,15,0.0,2.0,98,0.00,,,0.00,meteohub,2013-01-13 18:06:00,
2013-01-13 13:11:00,46.0,41.9,30.07,NNE,28,0.0,1.0,98,0.00,,,0.00,meteohub,2013-01-13 18:11:00,
2013-01-13 13:16:00,46.0,41.9,30.08,NNW,346,0.0,1.0,98,0.00,,,0.00,meteohub,2013-01-13 18:16:00,
2013-01-13 13:22:00,46.0,41.9,30.08,East,94,0.0,2.0,98,0.00,,,0.00,meteohub,2013-01-13 18:22:00,
2013-01-13 13:27:00,46.0,41.9,30.07,ESE,119,0.0,2.0,98,0.00,,,0.00,meteohub,2013-01-13 18:27:00,
2013-01-13 13:32:00,46.2,41.9,30.07,NE,53,1.0,5.0,98,0.00,,,0.00,meteohub,2013-01-13 18:32:00,
2013-01-13 13:37:00,46.4,41.7,30.07,East,82,0.0,6.0,98,0.00,,,0.00,meteohub,2013-01-13 18:37:00,
2013-01-13 13:42:00,46.4,41.7,30.06,East,82,0.0,6.0,98,0.00,,,0.00,meteohub,2013-01-13 18:42:00,
2013-01-13 13:47:00,46.2,41.7,30.06,ESE,106,0.0,6.0,98,0.00,,,0.00,meteohub,2013-01-13 18:47:00,
2013-01-13 13:52:00,46.2,41.7,30.06,NE,42,0.0,2.0,98,0.00,,,0.00,meteohub,2013-01-13 18:52:00,
2013-01-13 13:57:00,46.2,41.9,30.06,ENE,78,0.0,2.0,98,0.00,,,0.00,meteohub,2013-01-13 18:57:00,
2013-01-13 14:02:00,46.2,42.1,30.06,NNE,33,0.0,2.0,98,0.00,,,0.00,meteohub,2013-01-13 19:02:00,
2013-01-13 14:07:00,46.2,42.1,30.06,ENE,63,0.0,1.0,98,0.00,,,0.00,meteohub,2013-01-13 19:07:00,
2013-01-13 14:12:00,46.4,42.1,30.06,East,80,0.0,2.0,98,0.00,,,0.00,meteohub,2013-01-13 19:12:00,
2013-01-13 14:17:00,46.6,41.9,30.05,East,80,0.0,2.0,98,0.00,,,0.00,meteohub,2013-01-13 19:17:00,
2013-01-13 14:22:00,46.6,41.9,30.05,ENE,62,1.0,2.0,98,0.00,,,0.00,meteohub,2013-01-13 19:22:00,
2013-01-13 14:27:00,46.6,41.9,30.05,North,355,1.0,2.0,98,0.00,,,0.00,meteohub,2013-01-13 19:27:00,
2013-01-13 14:32:00,46.4,41.9,30.05,NE,53,1.0,2.0,98,0.00,,,0.00,meteohub,2013-01-13 19:32:00,
2013-01-13 14:37:00,46.6,41.7,30.05,East,87,1.0,3.0,98,0.00,,,0.00,meteohub,2013-01-13 19:37:00,
2013-01-13 14:42:00,46.8,41.9,30.05,ENE,71,0.0,4.0,98,0.00,,,0.00,meteohub,2013-01-13 19:42:00,
2013-01-13 14:47:00,46.8,41.9,30.06,NNE,14,0.0,4.0,98,0.00,,,0.00,meteohub,2013-01-13 19:47:00,
2013-01-13 14:52:00,46.8,41.9,30.05,NNE,14,0.0,4.0,98,0.00,,,0.00,meteohub,2013-01-13 19:52:00,
2013-01-13 14:57:00,46.8,41.9,30.05,NNE,25,0.0,4.0,98,0.00,,,0.00,meteohub,2013-01-13 19:57:00,
2013-01-13 15:02:00,46.8,41.9,30.06,NNE,25,0.0,3.0,98,0.00,,,0.00,meteohub,2013-01-13 20:02:00,
2013-01-13 15:07:00,46.8,41.9,30.05,NNE,25,0.0,1.0,98,0.00,,,0.00,meteohub,2013-01-13 20:07:00,
2013-01-13 15:12:00,46.8,42.1,30.05,NE,55,0.0,1.0,98,0.00,,,0.00,meteohub,2013-01-13 20:12:00,
2013-01-13 15:17:00,46.8,42.1,30.05,NE,49,0.0,5.0,98,0.00,,,0.00,meteohub,2013-01-13 20:17:00,
2013-01-13 15:22:00,46.8,42.1,30.05,NE,49,0.0,5.0,98,0.00,,,0.00,meteohub,2013-01-13 20:22:00,
2013-01-13 15:27:00,46.8,42.1,30.05,NE,49,1.0,5.0,98,0.00,,,0.00,meteohub,2013-01-13 20:27:00,
2013-01-13 15:32:00,46.9,41.9,30.04,ENE,63,0.0,1.0,98,0.00,,,0.00,meteohub,2013-01-13 20:32:00,
2013-01-13 15:37:00,46.8,41.9,30.04,East,83,0.0,1.0,98,0.00,,,0.00,meteohub,2013-01-13 20:37:00,
2013-01-13 15:42:00,46.8,41.9,30.04,East,83,0.0,2.0,98,0.00,,,0.00,meteohub,2013-01-13 20:42:00,
2013-01-13 15:47:00,46.8,41.7,30.04,East,83,0.0,2.0,98,0.00,,,0.00,meteohub,2013-01-13 20:47:00,
2013-01-13 15:52:00,46.8,41.7,30.04,East,83,0.0,2.0,98,0.00,,,0.00,meteohub,2013-01-13 20:52:00,
2013-01-13 15:57:00,46.8,41.7,30.04,North,0,0.0,2.0,98,0.00,,,0.00,meteohub,2013-01-13 20:57:00,
2013-01-13 16:02:00,46.6,41.7,30.04,North,0,0.0,2.0,98,0.00,,,0.00,meteohub,2013-01-13 21:02:00,
2013-01-13 16:07:00,46.8,41.9,30.04,North,0,0.0,2.0,98,0.00,,,0.00,meteohub,2013-01-13 21:07:00,
2013-01-13 16:12:00,46.8,42.1,30.04,North,0,0.0,2.0,98,0.00,,,0.00,meteohub,2013-01-13 21:12:00,
2013-01-13 16:17:00,46.6,42.1,30.04,North,0,0.0,1.0,98,0.00,,,0.00,meteohub,2013-01-13 21:17:00,
2013-01-13 16:22:00,46.2,42.1,30.04,North,0,0.0,1.0,98,0.00,,,0.00,meteohub,2013-01-13 21:22:00,
2013-01-13 16:27:00,46.6,42.1,30.04,North,0,0.0,1.0,98,0.00,,,0.00,meteohub,2013-01-13 21:27:00,
2013-01-13 16:32:00,46.6,42.1,30.04,North,0,0.0,1.0,98,0.00,,,0.00,meteohub,2013-01-13 21:32:00,
2013-01-13 16:37:00,46.6,41.9,30.03,North,0,0.0,1.0,98,0.00,,,0.00,meteohub,2013-01-13 21:37:00,
2013-01-13 16:42:00,46.6,41.9,30.03,North,0,0.0,1.0,98,0.00,,,0.00,meteohub,2013-01-13 21:42:00,
2013-01-13 16:47:00,46.2,41.9,30.03,North,0,0.0,1.0,98,0.00,,,0.00,meteohub,2013-01-13 21:47:00,
2013-01-13 16:52:00,46.4,41.9,30.03,North,0,0.0,1.0,98,0.00,,,0.00,meteohub,2013-01-13 21:52:00,
2013-01-13 16:57:00,46.4,41.9,30.03,North,0,0.0,1.0,98,0.00,,,0.00,meteohub,2013-01-13 21:57:00,
2013-01-13 17:02:00,46.4,41.9,30.03,North,0,0.0,1.0,98,0.00,,,0.00,meteohub,2013-01-13 22:02:00,
2013-01-13 17:07:00,46.4,41.9,30.03,North,0,0.0,1.0,98,0.00,,,0.00,meteohub,2013-01-13 22:07:00,
2013-01-13 17:12:00,46.2,42.1,30.03,North,0,0.0,2.0,98,0.00,,,0.00,meteohub,2013-01-13 22:12:00,
2013-01-13 17:17:00,46.2,42.3,30.03,North,0,0.0,2.0,98,0.00,,,0.00,meteohub,2013-01-13 22:17:00,
2013-01-13 17:22:00,46.0,42.3,30.03,North,0,0.0,2.0,98,0.00,,,0.00,meteohub,2013-01-13 22:22:00,
2013-01-13 17:27:00,45.7,42.3,30.03,North,0,0.0,1.0,98,0.00,,,0.00,meteohub,2013-01-13 22:27:00,
2013-01-13 17:31:00,45.9,42.3,30.02,North,0,0.0,1.0,98,0.00,,,0.00,meteohub,2013-01-13 22:31:00,
2013-01-13 17:37:00,46.2,42.3,30.02,North,0,0.0,1.0,98,0.00,,,0.00,meteohub,2013-01-13 22:37:00,
2013-01-13 17:42:00,46.6,42.3,30.01,NNE,25,0.0,1.0,98,0.00,,,0.00,meteohub,2013-01-13 22:42:00,
2013-01-13 17:47:00,46.8,42.1,30.02,NNE,33,2.0,2.0,98,0.00,,,0.00,meteohub,2013-01-13 22:47:00,
2013-01-13 17:52:00,46.8,42.1,30.01,NNE,26,0.0,5.0,98,0.00,,,0.00,meteohub,2013-01-13 22:52:00,
2013-01-13 17:57:00,46.8,42.1,30.01,ESE,105,0.0,5.0,98,0.00,,,0.00,meteohub,2013-01-13 22:57:00,
2013-01-13 18:02:00,46.8,42.1,30.01,ESE,105,1.0,5.0,98,0.00,,,0.00,meteohub,2013-01-13 23:02:00,
2013-01-13 18:07:00,46.6,42.1,30.01,ESE,105,0.0,3.0,98,0.00,,,0.00,meteohub,2013-01-13 23:07:00,
2013-01-13 18:12:00,46.6,42.1,30.02,NNE,28,0.0,3.0,98,0.00,,,0.00,meteohub,2013-01-13 23:12:00,
2013-01-13 18:17:00,46.6,42.1,30.01,NNE,28,0.0,3.0,98,0.00,,,0.00,meteohub,2013-01-13 23:17:00,
2013-01-13 18:22:00,46.6,42.1,30.02,NNE,28,0.0,3.0,98,0.00,,,0.00,meteohub,2013-01-13 23:22:00,
2013-01-13 18:27:00,46.8,42.1,30.02,North,0,0.0,1.0,98,0.00,,,0.00,meteohub,2013-01-13 23:27:00,
2013-01-13 18:32:00,46.6,42.1,30.02,North,0,1.0,2.0,98,0.00,,,0.00,meteohub,2013-01-13 23:32:00,
2013-01-13 18:37:00,46.6,42.1,30.02,NW,322,1.0,7.0,98,0.00,,,0.00,meteohub,2013-01-13 23:37:00,
2013-01-13 18:42:00,46.6,42.1,30.02,NW,322,0.0,7.0,98,0.00,,,0.00,meteohub,2013-01-13 23:42:00,
2013-01-13 18:47:00,46.6,43.0,30.02,NW,323,1.0,7.0,98,0.00,,,0.00,meteohub,2013-01-13 23:47:00,
2013-01-13 18:52:00,46.6,43.0,30.03,NW,323,0.0,2.0,98,0.00,,,0.00,meteohub,2013-01-13 23:52:00,
2013-01-13 18:57:00,46.6,43.0,30.03,NW,322,0.0,2.0,98,0.00,,,0.00,meteohub,2013-01-13 23:57:00,
2013-01-13 19:02:00,46.4,43.0,30.02,NW,323,0.0,2.0,98,0.00,,,0.00,meteohub,2013-01-14 00:02:00,
2013-01-13 19:07:00,46.6,43.0,30.02,NW,323,0.0,1.0,98,0.00,,,0.00,meteohub,2013-01-14 00:07:00,
2013-01-13 19:12:00,46.6,43.0,30.02,NW,322,0.0,1.0,98,0.00,,,0.00,meteohub,2013-01-14 00:12:00,
2013-01-13 19:17:00,46.8,43.0,30.02,NNW,341,0.0,1.0,98,0.00,,,0.00,meteohub,2013-01-14 00:17:00,
2013-01-13 19:22:00,46.6,43.0,30.02,NE,36,0.0,1.0,98,0.00,,,0.00,meteohub,2013-01-14 00:22:00,
2013-01-13 19:27:00,46.6,43.0,30.03,NE,36,0.0,2.0,98,0.00,,,0.00,meteohub,2013-01-14 00:27:00,
2013-01-13 19:32:00,46.6,43.0,30.03,NE,36,0.0,2.0,98,0.00,,,0.00,meteohub,2013-01-14 00:32:00,
2013-01-13 19:37:00,46.6,43.0,30.03,NNW,347,0.0,1.0,97,0.00,,,0.00,meteohub,2013-01-14 00:37:00,
2013-01-13 19:42:00,46.6,43.0,30.03,NNW,347,0.0,1.0,97,0.00,,,0.00,meteohub,2013-01-14 00:42:00,
2013-01-13 19:47:00,46.8,43.0,30.02,NNW,347,0.0,1.0,98,0.00,,,0.00,meteohub,2013-01-14 00:47:00,
2013-01-13 19:52:00,46.8,43.0,30.02,NNW,346,0.0,1.0,98,0.00,,,0.00,meteohub,2013-01-14 00:52:00,
2013-01-13 19:57:00,46.8,43.0,30.03,NNW,347,0.0,1.0,97,0.00,,,0.00,meteohub,2013-01-14 00:57:00,
2013-01-13 20:02:00,46.8,43.0,30.03,NNW,347,0.0,1.0,97,0.00,,,0.00,meteohub,2013-01-14 01:02:00,
2013-01-13 20:07:00,46.9,43.0,30.02,NNW,347,0.0,1.0,97,0.00,,,0.00,meteohub,2013-01-14 01:07:00,
2013-01-13 20:12:00,46.9,43.0,30.02,NNW,347,0.0,1.0,97,0.00,,,0.00,meteohub,2013-01-14 01:12:00,
2013-01-13 20:17:00,46.9,43.0,30.02,NE,44,0.0,1.0,97,0.00,,,0.00,meteohub,2013-01-14 01:17:00,
2013-01-13 20:22:00,47.1,43.0,30.01,ENE,59,0.0,1.0,97,0.00,,,0.00,meteohub,2013-01-14 01:22:00,
2013-01-13 20:27:00,47.3,43.0,30.01,NNW,329,0.0,1.0,97,0.00,,,0.00,meteohub,2013-01-14 01:27:00,
2013-01-13 20:32:00,47.3,43.0,30.01,ENE,57,0.0,3.0,97,0.00,,,0.00,meteohub,2013-01-14 01:32:00,
2013-01-13 20:37:00,47.1,43.0,30.02,ENE,58,0.0,3.0,97,0.00,,,0.00,meteohub,2013-01-14 01:37:00,
2013-01-13 20:42:00,47.3,43.0,30.01,East,86,0.0,3.0,97,0.00,,,0.00,meteohub,2013-01-14 01:42:00,
2013-01-13 20:47:00,47.5,43.0,30.02,East,87,0.0,2.0,97,0.00,,,0.00,meteohub,2013-01-14 01:47:00,
2013-01-13 20:52:00,47.5,43.0,30.02,SSW,195,0.0,2.0,97,0.00,,,0.00,meteohub,2013-01-14 01:52:00,
2013-01-13 20:57:00,47.5,43.0,30.02,NE,45,0.0,2.0,96,0.00,,,0.00,meteohub,2013-01-14 01:57:00,
2013-01-13 21:02:00,47.7,43.0,30.01,ENE,69,0.0,2.0,97,0.00,,,0.00,meteohub,2013-01-14 02:02:00,
2013-01-13 21:07:00,47.7,43.0,30.00,ENE,69,0.0,2.0,96,0.00,,,0.00,meteohub,2013-01-14 02:07:00,
2013-01-13 21:12:00,47.7,42.8,30.00,ENE,70,0.0,2.0,96,0.00,,,0.00,meteohub,2013-01-14 02:12:00,
2013-01-13 21:17:00,47.7,42.8,30.00,NNE,32,0.0,2.0,96,0.00,,,0.00,meteohub,2013-01-14 02:17:00,
2013-01-13 21:22:00,47.8,42.8,30.00,South,176,0.0,2.0,96,0.00,,,0.00,meteohub,2013-01-14 02:22:00,
2013-01-13 21:27:00,47.8,42.8,30.00,South,176,0.0,2.0,96,0.00,,,0.00,meteohub,2013-01-14 02:27:00,
2013-01-13 21:32:00,47.8,42.8,30.00,North,10,0.0,2.0,96,0.00,,,0.00,meteohub,2013-01-14 02:32:00,
2013-01-13 21:37:00,47.8,42.6,30.00,East,98,0.0,4.0,96,0.00,,,0.00,meteohub,2013-01-14 02:37:00,
2013-01-13 21:42:00,48.0,42.6,29.99,East,98,0.0,4.0,96,0.00,,,0.00,meteohub,2013-01-14 02:42:00,
2013-01-13 21:47:00,48.0,42.6,29.99,NE,48,0.0,2.0,96,0.00,,,0.00,meteohub,2013-01-14 02:47:00,
2013-01-13 21:52:00,48.0,42.6,29.99,NE,44,0.0,2.0,96,0.00,,,0.00,meteohub,2013-01-14 02:52:00,
2013-01-13 21:57:00,48.4,42.4,30.00,SSE,155,2.0,2.0,96,0.00,,,0.00,meteohub,2013-01-14 02:57:00,
2013-01-13 22:02:00,48.4,42.4,30.00,NW,317,0.0,6.0,96,0.00,,,0.00,meteohub,2013-01-14 03:02:00,
2013-01-13 22:07:00,48.2,41.5,30.00,NNW,338,0.0,6.0,96,0.00,,,0.00,meteohub,2013-01-14 03:07:00,
2013-01-13 22:12:00,48.0,41.5,30.00,NNW,333,4.0,6.0,96,0.00,,,0.00,meteohub,2013-01-14 03:12:00,
2013-01-13 22:17:00,47.8,41.4,29.99,NNW,336,0.0,5.0,96,0.00,,,0.00,meteohub,2013-01-14 03:17:00,
2013-01-13 22:22:00,47.7,41.4,30.01,NW,311,0.0,5.0,96,0.00,,,0.00,meteohub,2013-01-14 03:22:00,
2013-01-13 22:27:00,47.7,41.4,30.00,NW,319,0.0,7.0,96,0.00,,,0.00,meteohub,2013-01-14 03:27:00,
2013-01-13 22:32:00,47.5,41.2,30.00,North,9,0.0,7.0,96,0.00,,,0.00,meteohub,2013-01-14 03:32:00,
2013-01-13 22:37:00,47.3,41.2,29.99,North,9,0.0,7.0,96,0.00,,,0.00,meteohub,2013-01-14 03:37:00,
2013-01-13 22:42:00,47.1,41.2,30.00,North,9,0.0,1.0,96,0.00,,,0.00,meteohub,2013-01-14 03:42:00,
2013-01-13 22:47:00,47.1,41.2,30.00,NNW,336,1.0,5.0,96,0.00,,,0.00,meteohub,2013-01-14 03:47:00,
2013-01-13 22:52:00,47.1,41.2,30.00,NNW,336,0.0,5.0,96,0.00,,,0.00,meteohub,2013-01-14 03:52:00,
2013-01-13 22:57:00,46.9,41.2,30.00,NNW,336,0.0,5.0,96,0.00,,,0.00,meteohub,2013-01-14 03:57:00,
2013-01-13 23:02:00,46.9,41.2,30.00,NNW,336,0.0,2.0,96,0.00,,,0.00,meteohub,2013-01-14 04:02:00,
2013-01-13 23:07:00,46.8,41.0,30.00,NW,323,0.0,1.0,96,0.00,,,0.00,meteohub,2013-01-14 04:07:00,
2013-01-13 23:12:00,46.9,41.0,30.00,NW,323,0.0,2.0,96,0.00,,,0.00,meteohub,2013-01-14 04:12:00,
2013-01-13 23:17:00,46.9,41.0,30.00,NW,323,0.0,2.0,97,0.00,,,0.00,meteohub,2013-01-14 04:17:00,
2013-01-13 23:22:00,46.9,41.0,29.99,NW,323,0.0,1.0,97,0.00,,,0.00,meteohub,2013-01-14 04:22:00,
2013-01-13 23:27:00,46.9,40.8,29.99,NW,323,0.0,1.0,97,0.00,,,0.00,meteohub,2013-01-14 04:27:00,
2013-01-13 23:32:00,46.9,41.7,30.00,NW,323,0.0,1.0,96,0.00,,,0.00,meteohub,2013-01-14 04:32:00,
2013-01-13 23:37:00,46.8,41.7,30.00,NW,323,0.0,1.0,97,0.00,,,0.00,meteohub,2013-01-14 04:37:00,
2013-01-13 23:42:00,46.8,41.7,30.00,NW,323,0.0,1.0,97,0.00,,,0.00,meteohub,2013-01-14 04:42:00,
2013-01-13 23:47:00,46.9,41.7,30.00,North,0,0.0,2.0,97,0.00,,,0.00,meteohub,2013-01-14 04:47:00,
2013-01-13 23:52:00,46.9,41.5,30.00,North,0,0.0,2.0,97,0.00,,,0.00,meteohub,2013-01-14 04:52:00,
2013-01-13 23:57:00,46.9,41.5,29.99,North,0,0.0,2.0,97,0.00,,,0.00,meteohub,2013-01-14 04:57:00,